Time,TemperatureF,DewpointF,PressureIn,WindDirection,WindDirectionDegrees,WindSpeedMPH,WindSpeedGustMPH,Humidity,HourlyPrecipIn,Conditions,Clouds,dailyrainin,SoftwareType,DateUTC
2013-07-19 00:01:00,77.7,72.1,30.09,SSW,202,0.0,0.0,83,0.00,,,0.00,WeatherCatV1.20B785,2013-07-19 04:01:00,
2013-07-19 00:06:00,77.7,72.1,30.09,SSW,202,0.0,0.0,83,0.00,,,0.00,WeatherCatV1.20B785,2013-07-19 04:06:00,
2013-07-19 00:11:00,77.5,72.0,30.10,SSW,202,0.0,0.0,83,0.00,,,0.00,WeatherCatV1.20B785,2013-07-19 04:11:00,
2013-07-19 00:16:00,77.5,72.0,30.09,SSW,202,0.0,0.0,83,0.00,,,0.00,WeatherCatV1.20B785,2013-07-19 04:16:00,
2013-07-19 00:21:00,77.5,72.0,30.09,SSW,202,0.0,0.0,83,0.00,,,0.00,WeatherCatV1.20B785,2013-07-19 04:21:00,
2013-07-19 00:26:00,77.4,71.8,30.10,SSW,202,0.0,0.0,83,0.00,,,0.00,WeatherCatV1.20B785,2013-07-19 04:26:00,
2013-07-19 00:31:00,77.4,72.1,30.11,SW,225,0.0,0.0,84,0.00,,,0.00,WeatherCatV1.20B785,2013-07-19 04:31:00,
2013-07-19 00:36:00,77.2,72.0,30.10,SW,225,0.0,0.0,84,0.00,,,0.00,WeatherCatV1.20B785,2013-07-19 04:36:00,
2013-07-19 00:41:00,77.2,72.0,30.10,SW,225,0.0,0.0,84,0.00,,,0.00,WeatherCatV1.20B785,2013-07-19 04:41:00,
2013-07-19 00:46:00,77.2,72.0,30.10,SW,225,0.0,0.0,84,0.00,,,0.00,WeatherCatV1.20B785,2013-07-19 04:46:00,
2013-07-19 00:51:00,77.2,72.3,30.10,SW,225,0.0,0.0,85,0.00,,,0.00,WeatherCatV1.20B785,2013-07-19 04:51:00,
2013-07-19 00:56:00,77.2,72.5,30.10,SW,225,0.0,0.0,85,0.00,,,0.00,WeatherCatV1.20B785,2013-07-19 04:56:00,
2013-07-19 01:01:00,77.2,72.0,30.10,SW,225,0.0,0.0,84,0.00,,,0.00,WeatherCatV1.20B785,2013-07-19 05:01:00,
2013-07-19 01:06:00,77.2,72.3,30.10,SW,225,0.0,0.0,85,0.00,,,0.00,WeatherCatV1.20B785,2013-07-19 05:06:00,
2013-07-19 01:11:00,77.2,72.3,30.10,SSW,202,0.0,0.0,85,0.00,,,0.00,WeatherCatV1.20B785,2013-07-19 05:11:00,
2013-07-19 01:16:00,77.0,72.1,30.10,SW,225,0.0,0.0,85,0.00,,,0.00,WeatherCatV1.20B785,2013-07-19 05:16:00,
2013-07-19 01:21:00,77.0,72.1,30.10,SW,225,0.0,0.0,85,0.00,,,0.00,WeatherCatV1.20B785,2013-07-19 05:21:00,
2013-07-19 01:26:00,76.8,72.0,30.09,SW,225,0.0,0.0,85,0.00,,,0.00,WeatherCatV1.20B785,2013-07-19 05:26:00,
2013-07-19 01:31:00,76.8,72.0,30.09,SW,225,0.0,0.0,85,0.00,,,0.00,WeatherCatV1.20B785,2013-07-19 05:31:00,
2013-07-19 01:36:00,76.8,72.0,30.09,SW,225,0.0,0.0,85,0.00,,,0.00,WeatherCatV1.20B785,2013-07-19 05:36:00,
2013-07-19 01:41:00,76.8,72.0,30.09,SW,225,0.0,0.0,85,0.00,,,0.00,WeatherCatV1.20B785,2013-07-19 05:41:00,
2013-07-19 01:46:00,76.8,72.0,30.09,SW,225,0.0,0.0,85,0.00,,,0.00,WeatherCatV1.20B785,2013-07-19 05:46:00,
2013-07-19 01:51:00,76.8,72.0,30.09,SW,225,0.0,0.0,85,0.00,,,0.00,WeatherCatV1.20B785,2013-07-19 05:51:00,
2013-07-19 01:56:00,76.8,72.0,30.09,SW,225,0.0,0.0,85,0.00,,,0.00,WeatherCatV1.20B785,2013-07-19 05:56:00,
2013-07-19 02:05:00,76.8,72.0,30.09,SW,225,0.0,0.0,85,0.00,,,0.00,WeatherCatV1.20B785,2013-07-19 06:05:00,
2013-07-19 02:10:00,76.6,71.8,30.09,SW,225,0.0,0.0,85,0.00,,,0.00,WeatherCatV1.20B785,2013-07-19 06:10:00,
2013-07-19 02:15:00,76.5,71.6,30.09,SW,225,0.0,0.0,85,0.00,,,0.00,WeatherCatV1.20B785,2013-07-19 06:15:00,
2013-07-19 02:20:00,76.3,71.8,30.09,SW,225,0.0,0.0,86,0.00,,,0.00,WeatherCatV1.20B785,2013-07-19 06:20:00,
2013-07-19 02:25:00,76.3,71.8,30.09,SW,225,0.0,0.0,86,0.00,,,0.00,WeatherCatV1.20B785,2013-07-19 06:25:00,
2013-07-19 02:30:00,76.1,71.6,30.08,SW,225,0.0,0.0,86,0.00,,,0.00,WeatherCatV1.20B785,2013-07-19 06:30:00,
2013-07-19 02:35:00,75.9,71.5,30.09,SW,225,0.0,0.0,86,0.00,,,0.00,WeatherCatV1.20B785,2013-07-19 06:35:00,
2013-07-19 02:40:00,75.9,71.5,30.08,SW,225,0.0,0.0,86,0.00,,,0.00,WeatherCatV1.20B785,2013-07-19 06:40:00,
2013-07-19 02:45:00,75.9,71.5,30.08,SW,225,0.0,0.0,86,0.00,,,0.00,WeatherCatV1.20B785,2013-07-19 06:45:00,
2013-07-19 02:50:00,75.7,71.3,30.08,SW,225,0.0,0.0,86,0.00,,,0.00,WeatherCatV1.20B785,2013-07-19 06:50:00,
2013-07-19 02:55:00,75.7,71.3,30.08,SW,225,0.0,0.0,86,0.00,,,0.00,WeatherCatV1.20B785,2013-07-19 06:55:00,
2013-07-19 03:00:00,75.6,71.1,30.08,SW,225,0.0,0.0,86,0.00,,,0.00,WeatherCatV1.20B785,2013-07-19 07:00:00,
2013-07-19 03:01:00,75.6,71.1,30.08,SW,225,0.0,0.0,86,0.00,,,0.00,WeatherCatV1.20B785,2013-07-19 07:01:00,
2013-07-19 03:06:00,75.6,71.1,30.08,SW,225,0.0,0.0,86,0.00,,,0.00,WeatherCatV1.20B785,2013-07-19 07:06:00,
2013-07-19 03:11:00,75.4,70.9,30.07,SW,225,0.0,0.0,86,0.00,,,0.00,WeatherCatV1.20B785,2013-07-19 07:11:00,
2013-07-19 03:16:00,75.4,70.9,30.07,SW,225,0.0,0.0,86,0.00,,,0.00,WeatherCatV1.20B785,2013-07-19 07:16:00,
2013-07-19 03:21:00,75.4,70.9,30.07,SW,225,0.0,0.0,86,0.00,,,0.00,WeatherCatV1.20B785,2013-07-19 07:21:00,
2013-07-19 03:26:00,75.2,70.8,30.07,SW,225,0.0,0.0,86,0.00,,,0.00,WeatherCatV1.20B785,2013-07-19 07:26:00,
2013-07-19 03:31:00,75.0,70.9,30.07,SW,225,0.0,0.0,87,0.00,,,0.00,WeatherCatV1.20B785,2013-07-19 07:31:00,
2013-07-19 03:36:00,75.0,70.9,30.07,SW,225,0.0,0.0,87,0.00,,,0.00,WeatherCatV1.20B785,2013-07-19 07:36:00,
2013-07-19 03:41:00,75.0,70.9,30.07,SW,225,0.0,0.0,87,0.00,,,0.00,WeatherCatV1.20B785,2013-07-19 07:41:00,
2013-07-19 03:46:00,75.0,70.9,30.07,SW,225,0.0,0.0,87,0.00,,,0.00,WeatherCatV1.20B785,2013-07-19 07:46:00,
2013-07-19 03:51:00,75.0,70.9,30.07,SW,225,0.0,0.0,87,0.00,,,0.00,WeatherCatV1.20B785,2013-07-19 07:51:00,
2013-07-19 03:56:00,74.8,70.8,30.07,SW,225,0.0,0.0,87,0.00,,,0.00,WeatherCatV1.20B785,2013-07-19 07:56:00,
2013-07-19 04:01:00,74.8,70.8,30.07,SW,225,0.0,0.0,87,0.00,,,0.00,WeatherCatV1.20B785,2013-07-19 08:01:00,
2013-07-19 04:06:00,74.8,70.8,30.07,SW,225,0.0,0.0,87,0.00,,,0.00,WeatherCatV1.20B785,2013-07-19 08:06:00,
2013-07-19 04:11:00,74.8,70.8,30.07,SW,225,0.0,0.0,87,0.00,,,0.00,WeatherCatV1.20B785,2013-07-19 08:11:00,
2013-07-19 04:16:00,74.8,70.8,30.08,SW,225,0.0,0.0,87,0.00,,,0.00,WeatherCatV1.20B785,2013-07-19 08:16:00,
2013-07-19 04:21:00,74.8,70.8,30.07,SW,225,0.0,0.0,87,0.00,,,0.00,WeatherCatV1.20B785,2013-07-19 08:21:00,
2013-07-19 04:26:00,74.7,70.6,30.07,SW,225,0.0,0.0,87,0.00,,,0.00,WeatherCatV1.20B785,2013-07-19 08:26:00,
2013-07-19 04:31:00,74.8,70.8,30.07,SW,225,0.0,0.0,87,0.00,,,0.00,WeatherCatV1.20B785,2013-07-19 08:31:00,
2013-07-19 04:36:00,74.7,70.6,30.08,SW,225,0.0,0.0,87,0.00,,,0.00,WeatherCatV1.20B785,2013-07-19 08:36:00,
2013-07-19 04:41:00,74.7,70.6,30.08,SW,225,0.0,0.0,87,0.00,,,0.00,WeatherCatV1.20B785,2013-07-19 08:41:00,
2013-07-19 04:46:00,74.7,70.6,30.07,SW,225,0.0,0.0,87,0.00,,,0.00,WeatherCatV1.20B785,2013-07-19 08:46:00,
2013-07-19 04:51:00,74.5,70.4,30.07,SW,225,0.0,0.0,87,0.00,,,0.00,WeatherCatV1.20B785,2013-07-19 08:51:00,
2013-07-19 04:56:00,74.5,70.4,30.08,SW,225,0.0,0.0,87,0.00,,,0.00,WeatherCatV1.20B785,2013-07-19 08:56:00,
2013-07-19 05:04:00,74.5,70.4,30.08,SW,225,0.0,0.0,87,0.00,,,0.00,WeatherCatV1.20B785,2013-07-19 09:04:00,
2013-07-19 05:09:00,74.5,70.4,30.08,SW,225,0.0,0.0,87,0.00,,,0.00,WeatherCatV1.20B785,2013-07-19 09:09:00,
2013-07-19 05:14:00,74.5,70.4,30.07,SW,225,0.0,0.0,87,0.00,,,0.00,WeatherCatV1.20B785,2013-07-19 09:14:00,
2013-07-19 05:19:00,74.5,70.4,30.07,SW,225,0.0,0.0,87,0.00,,,0.00,WeatherCatV1.20B785,2013-07-19 09:19:00,
2013-07-19 05:24:00,74.5,70.4,30.08,SW,225,0.0,0.0,87,0.00,,,0.00,WeatherCatV1.20B785,2013-07-19 09:24:00,
2013-07-19 05:29:00,74.5,70.4,30.08,SW,225,0.0,0.0,87,0.00,,,0.00,WeatherCatV1.20B785,2013-07-19 09:29:00,
2013-07-19 05:34:00,74.5,70.4,30.07,SW,225,0.0,0.0,87,0.00,,,0.00,WeatherCatV1.20B785,2013-07-19 09:34:00,
2013-07-19 05:39:00,74.3,70.2,30.08,SW,225,0.0,0.0,87,0.00,,,0.00,WeatherCatV1.20B785,2013-07-19 09:39:00,
2013-07-19 05:44:00,74.3,70.2,30.08,SW,225,0.0,0.0,87,0.00,,,0.00,WeatherCatV1.20B785,2013-07-19 09:44:00,
2013-07-19 05:49:00,74.3,70.2,30.08,SW,225,0.0,0.0,87,0.00,,,0.00,WeatherCatV1.20B785,2013-07-19 09:49:00,
2013-07-19 05:54:00,74.3,70.2,30.08,SW,225,0.0,0.0,87,0.00,,,0.00,WeatherCatV1.20B785,2013-07-19 09:54:00,
2013-07-19 05:59:00,74.1,70.0,30.08,SW,225,0.0,0.0,87,0.00,,,0.00,WeatherCatV1.20B785,2013-07-19 09:59:00,
2013-07-19 06:04:00,74.1,70.0,30.08,SW,225,0.0,0.0,87,0.00,,,0.00,WeatherCatV1.20B785,2013-07-19 10:04:00,
2013-07-19 06:09:00,74.1,70.4,30.08,SW,225,0.0,0.0,88,0.00,,,0.00,WeatherCatV1.20B785,2013-07-19 10:09:00,
2013-07-19 06:14:00,74.1,70.4,30.08,SW,225,0.0,0.0,88,0.00,,,0.00,WeatherCatV1.20B785,2013-07-19 10:14:00,
2013-07-19 06:19:00,73.9,70.2,30.07,SW,225,0.0,0.0,88,0.00,,,0.00,WeatherCatV1.20B785,2013-07-19 10:19:00,
2013-07-19 06:24:00,73.9,70.2,30.08,SW,225,0.0,0.0,88,0.00,,,0.00,WeatherCatV1.20B785,2013-07-19 10:24:00,
2013-07-19 06:29:00,73.9,70.2,30.08,SW,225,0.0,0.0,88,0.00,,,0.00,WeatherCatV1.20B785,2013-07-19 10:29:00,
2013-07-19 06:34:00,73.9,70.2,30.08,SW,225,0.0,0.0,88,0.00,,,0.00,WeatherCatV1.20B785,2013-07-19 10:34:00,
2013-07-19 06:39:00,73.9,70.2,30.08,SW,225,0.0,0.0,88,0.00,,,0.00,WeatherCatV1.20B785,2013-07-19 10:39:00,
2013-07-19 06:44:00,73.9,70.2,30.08,SW,225,0.0,0.0,88,0.00,,,0.00,WeatherCatV1.20B785,2013-07-19 10:44:00,
2013-07-19 06:49:00,73.9,70.2,30.08,SW,225,0.0,0.0,88,0.00,,,0.00,WeatherCatV1.20B785,2013-07-19 10:49:00,
2013-07-19 06:54:00,73.9,70.2,30.08,SW,225,0.0,0.0,88,0.00,,,0.00,WeatherCatV1.20B785,2013-07-19 10:54:00,
2013-07-19 06:59:00,73.9,70.2,30.08,SW,225,0.0,0.0,88,0.00,,,0.00,WeatherCatV1.20B785,2013-07-19 10:59:00,
2013-07-19 07:04:00,73.9,70.2,30.09,SW,225,0.0,0.0,88,0.00,,,0.00,WeatherCatV1.20B785,2013-07-19 11:04:00,
2013-07-19 07:09:00,73.9,70.2,30.09,SW,225,0.0,0.0,88,0.00,,,0.00,WeatherCatV1.20B785,2013-07-19 11:09:00,
2013-07-19 07:14:00,73.9,70.2,30.09,SW,225,0.0,0.0,88,0.00,,,0.00,WeatherCatV1.20B785,2013-07-19 11:14:00,
2013-07-19 07:19:00,73.9,70.2,30.09,SW,225,0.0,0.0,88,0.00,,,0.00,WeatherCatV1.20B785,2013-07-19 11:19:00,
2013-07-19 07:24:00,73.9,70.2,30.10,SW,225,0.0,0.0,88,0.00,,,0.00,WeatherCatV1.20B785,2013-07-19 11:24:00,
2013-07-19 07:29:00,73.9,70.2,30.09,SW,225,0.0,0.0,88,0.00,,,0.00,WeatherCatV1.20B785,2013-07-19 11:29:00,
2013-07-19 07:34:00,73.9,70.2,30.09,SW,225,0.0,0.0,88,0.00,,,0.00,WeatherCatV1.20B785,2013-07-19 11:34:00,
2013-07-19 07:39:00,73.9,70.5,30.09,SW,225,0.0,0.0,89,0.00,,,0.00,WeatherCatV1.20B785,2013-07-19 11:39:00,
2013-07-19 07:44:00,74.1,70.7,30.10,SW,225,0.0,0.0,89,0.00,,,0.00,WeatherCatV1.20B785,2013-07-19 11:44:00,
2013-07-19 07:49:00,74.1,70.7,30.10,SW,225,0.0,0.0,89,0.00,,,0.00,WeatherCatV1.20B785,2013-07-19 11:49:00,
2013-07-19 07:54:00,74.3,70.9,30.11,SW,225,0.0,0.0,89,0.00,,,0.00,WeatherCatV1.20B785,2013-07-19 11:54:00,
2013-07-19 07:59:00,74.3,70.6,30.11,SW,225,0.0,0.0,88,0.00,,,0.00,WeatherCatV1.20B785,2013-07-19 11:59:00,
2013-07-19 08:04:00,74.5,70.7,30.11,SW,225,0.0,0.0,88,0.00,,,0.00,WeatherCatV1.20B785,2013-07-19 12:04:00,
2013-07-19 08:09:00,74.5,70.7,30.11,SW,225,0.0,0.0,88,0.00,,,0.00,WeatherCatV1.20B785,2013-07-19 12:09:00,
2013-07-19 08:14:00,74.8,71.1,30.11,SW,225,0.0,0.0,88,0.00,,,0.00,WeatherCatV1.20B785,2013-07-19 12:14:00,
2013-07-19 08:19:00,75.0,71.3,30.11,West,270,0.0,0.0,88,0.00,,,0.00,WeatherCatV1.20B785,2013-07-19 12:19:00,
2013-07-19 08:24:00,75.2,71.5,30.11,WSW,247,0.0,0.0,88,0.00,,,0.00,WeatherCatV1.20B785,2013-07-19 12:24:00,
2013-07-19 08:29:00,75.6,71.8,30.11,WSW,247,0.0,0.0,88,0.00,,,0.00,WeatherCatV1.20B785,2013-07-19 12:29:00,
2013-07-19 08:34:00,75.9,72.2,30.11,WSW,247,0.0,0.0,88,0.00,,,0.00,WeatherCatV1.20B785,2013-07-19 12:34:00,
2013-07-19 08:39:00,76.1,72.3,30.11,WSW,247,0.0,0.0,88,0.00,,,0.00,WeatherCatV1.20B785,2013-07-19 12:39:00,
2013-07-19 08:44:00,76.6,72.9,30.12,West,270,0.0,0.0,88,0.00,,,0.00,WeatherCatV1.20B785,2013-07-19 12:44:00,
2013-07-19 08:49:00,76.6,72.9,30.12,WSW,247,0.0,0.0,88,0.00,,,0.00,WeatherCatV1.20B785,2013-07-19 12:49:00,
2013-07-19 08:54:00,77.0,72.9,30.13,WSW,247,0.0,0.0,87,0.00,,,0.00,WeatherCatV1.20B785,2013-07-19 12:54:00,
2013-07-19 08:59:00,77.4,73.2,30.12,WSW,247,0.0,0.0,87,0.00,,,0.00,WeatherCatV1.20B785,2013-07-19 12:59:00,
2013-07-19 09:04:00,77.5,73.4,30.12,WSW,247,0.0,0.0,87,0.00,,,0.00,WeatherCatV1.20B785,2013-07-19 13:04:00,
2013-07-19 09:09:00,77.7,73.6,30.13,WSW,247,0.0,0.0,87,0.00,,,0.00,WeatherCatV1.20B785,2013-07-19 13:09:00,
2013-07-19 09:14:00,78.1,73.9,30.13,WSW,247,0.0,0.0,87,0.00,,,0.00,WeatherCatV1.20B785,2013-07-19 13:14:00,
2013-07-19 09:19:00,78.1,73.6,30.13,WSW,247,0.0,0.0,86,0.00,,,0.00,WeatherCatV1.20B785,2013-07-19 13:19:00,
2013-07-19 09:24:00,78.4,73.9,30.13,WSW,247,0.0,0.0,86,0.00,,,0.00,WeatherCatV1.20B785,2013-07-19 13:24:00,
2013-07-19 09:29:00,78.4,73.9,30.13,WSW,247,0.0,0.0,86,0.00,,,0.00,WeatherCatV1.20B785,2013-07-19 13:29:00,
2013-07-19 09:34:00,78.4,73.9,30.13,WSW,247,0.0,0.0,86,0.00,,,0.00,WeatherCatV1.20B785,2013-07-19 13:34:00,
2013-07-19 09:39:00,78.4,73.9,30.13,WSW,247,0.0,0.0,86,0.00,,,0.00,WeatherCatV1.20B785,2013-07-19 13:39:00,
2013-07-19 09:44:00,78.6,74.1,30.13,WSW,247,0.0,0.0,86,0.00,,,0.00,WeatherCatV1.20B785,2013-07-19 13:44:00,
2013-07-19 09:49:00,78.8,73.9,30.13,SW,225,0.0,0.0,85,0.00,,,0.00,WeatherCatV1.20B785,2013-07-19 13:49:00,
2013-07-19 09:54:00,79.0,74.1,30.13,SW,225,0.0,0.0,85,0.00,,,0.00,WeatherCatV1.20B785,2013-07-19 13:54:00,
2013-07-19 09:59:00,79.0,74.1,30.13,SSW,202,0.9,0.9,85,0.00,,,0.00,WeatherCatV1.20B785,2013-07-19 13:59:00,
2013-07-19 10:04:00,79.0,74.3,30.13,SW,225,0.0,0.0,84,0.00,,,0.00,WeatherCatV1.20B785,2013-07-19 14:04:00,
2013-07-19 10:09:00,79.2,74.3,30.13,SSW,202,0.0,0.0,85,0.00,,,0.00,WeatherCatV1.20B785,2013-07-19 14:09:00,
2013-07-19 10:14:00,79.3,74.4,30.13,SW,225,0.0,0.0,85,0.00,,,0.00,WeatherCatV1.20B785,2013-07-19 14:14:00,
2013-07-19 10:19:00,79.5,74.6,30.13,SW,225,0.0,0.0,84,0.00,,,0.00,WeatherCatV1.20B785,2013-07-19 14:19:00,
2013-07-19 10:24:00,79.7,74.4,30.13,SSW,202,0.0,0.0,84,0.00,,,0.00,WeatherCatV1.20B785,2013-07-19 14:24:00,
2013-07-19 10:29:00,79.7,74.4,30.13,SSW,202,0.0,0.0,84,0.00,,,0.00,WeatherCatV1.20B785,2013-07-19 14:29:00,
2013-07-19 10:34:00,79.9,74.6,30.13,SW,225,0.0,0.0,84,0.00,,,0.00,WeatherCatV1.20B785,2013-07-19 14:34:00,
2013-07-19 10:39:00,80.1,74.4,30.13,SE,135,0.0,0.0,83,0.00,,,0.00,WeatherCatV1.20B785,2013-07-19 14:39:00,
2013-07-19 10:44:00,80.1,74.4,30.13,WNW,292,0.0,0.0,83,0.00,,,0.00,WeatherCatV1.20B785,2013-07-19 14:44:00,
2013-07-19 10:49:00,80.4,74.8,30.13,SSW,202,0.0,0.0,83,0.00,,,0.00,WeatherCatV1.20B785,2013-07-19 14:49:00,
2013-07-19 10:54:00,80.8,75.2,30.13,SW,225,0.0,2.0,83,0.00,,,0.00,WeatherCatV1.20B785,2013-07-19 14:54:00,
2013-07-19 10:59:00,81.0,75.0,30.12,WSW,247,0.0,0.0,82,0.00,,,0.00,WeatherCatV1.20B785,2013-07-19 14:59:00,
2013-07-19 11:04:00,81.1,75.2,30.13,SSW,202,0.0,0.0,82,0.00,,,0.00,WeatherCatV1.20B785,2013-07-19 15:04:00,
2013-07-19 11:09:00,81.3,75.3,30.13,SSW,202,0.0,0.0,82,0.00,,,0.00,WeatherCatV1.20B785,2013-07-19 15:09:00,
2013-07-19 11:14:00,81.3,75.0,30.13,SW,225,0.0,0.0,81,0.00,,,0.00,WeatherCatV1.20B785,2013-07-19 15:14:00,
2013-07-19 11:19:00,81.7,75.4,30.13,SSW,202,0.0,0.0,81,0.00,,,0.00,WeatherCatV1.20B785,2013-07-19 15:19:00,
2013-07-19 11:24:00,82.0,75.7,30.12,South,180,0.0,0.0,81,0.00,,,0.00,WeatherCatV1.20B785,2013-07-19 15:24:00,
2013-07-19 11:29:00,82.2,75.9,30.12,South,180,0.0,0.0,81,0.00,,,0.00,WeatherCatV1.20B785,2013-07-19 15:29:00,
2013-07-19 11:34:00,82.6,75.9,30.13,WSW,247,0.0,0.0,80,0.00,,,0.00,WeatherCatV1.20B785,2013-07-19 15:34:00,
2013-07-19 11:39:00,82.4,75.3,30.12,SW,225,0.9,0.9,79,0.00,,,0.00,WeatherCatV1.20B785,2013-07-19 15:39:00,
2013-07-19 11:44:00,82.4,75.3,30.11,WSW,247,0.9,0.9,79,0.00,,,0.00,WeatherCatV1.20B785,2013-07-19 15:44:00,
2013-07-19 11:49:00,82.2,75.2,30.12,SW,225,0.0,0.0,79,0.00,,,0.00,WeatherCatV1.20B785,2013-07-19 15:49:00,
2013-07-19 11:54:00,82.4,75.3,30.11,SSW,202,0.0,0.0,79,0.00,,,0.00,WeatherCatV1.20B785,2013-07-19 15:54:00,
2013-07-19 11:59:00,82.8,75.7,30.12,SSW,202,0.0,0.0,79,0.00,,,0.00,WeatherCatV1.20B785,2013-07-19 15:59:00,
2013-07-19 12:04:00,83.5,76.0,30.12,SSW,202,0.0,0.0,79,0.00,,,0.00,WeatherCatV1.20B785,2013-07-19 16:04:00,
2013-07-19 12:09:00,83.8,76.2,30.11,South,180,0.0,0.0,78,0.00,,,0.00,WeatherCatV1.20B785,2013-07-19 16:09:00,
2013-07-19 12:14:00,83.8,75.8,30.12,South,180,0.0,0.0,77,0.00,,,0.00,WeatherCatV1.20B785,2013-07-19 16:14:00,
2013-07-19 12:19:00,83.7,75.7,30.11,SSW,202,0.0,0.0,77,0.00,,,0.00,WeatherCatV1.20B785,2013-07-19 16:19:00,
2013-07-19 12:24:00,84.0,76.4,30.11,South,180,0.0,0.0,78,0.00,,,0.00,WeatherCatV1.20B785,2013-07-19 16:24:00,
2013-07-19 12:29:00,84.7,77.1,30.11,SSW,202,0.0,0.0,78,0.00,,,0.00,WeatherCatV1.20B785,2013-07-19 16:29:00,
2013-07-19 12:34:00,85.1,77.1,30.11,SSW,202,0.0,0.0,77,0.00,,,0.00,WeatherCatV1.20B785,2013-07-19 16:34:00,
2013-07-19 12:39:00,85.3,77.2,30.11,South,180,0.0,0.0,77,0.00,,,0.00,WeatherCatV1.20B785,2013-07-19 16:39:00,
2013-07-19 12:44:00,85.1,77.1,30.11,South,180,0.0,0.0,77,0.00,,,0.00,WeatherCatV1.20B785,2013-07-19 16:44:00,
2013-07-19 12:49:00,84.9,76.9,30.11,South,180,0.0,0.0,77,0.00,,,0.00,WeatherCatV1.20B785,2013-07-19 16:49:00,
2013-07-19 12:54:00,84.9,76.9,30.10,ENE,67,2.2,2.2,77,0.00,,,0.00,WeatherCatV1.20B785,2013-07-19 16:54:00,
2013-07-19 12:59:00,84.9,76.9,30.11,SSE,157,0.0,0.0,77,0.00,,,0.00,WeatherCatV1.20B785,2013-07-19 16:59:00,
2013-07-19 13:04:00,85.5,77.8,30.11,SSE,157,0.0,1.3,78,0.00,,,0.00,WeatherCatV1.20B785,2013-07-19 17:04:00,
2013-07-19 13:09:00,85.5,77.8,30.10,South,180,0.0,0.0,78,0.00,,,0.00,WeatherCatV1.20B785,2013-07-19 17:09:00,
2013-07-19 13:14:00,85.3,77.2,30.09,North,0,0.0,0.0,77,0.00,,,0.00,WeatherCatV1.20B785,2013-07-19 17:14:00,
2013-07-19 13:19:00,85.3,77.2,30.10,South,180,0.0,0.0,77,0.00,,,0.00,WeatherCatV1.20B785,2013-07-19 17:19:00,
2013-07-19 13:24:00,84.9,76.9,30.09,SW,225,0.0,0.0,77,0.00,,,0.00,WeatherCatV1.20B785,2013-07-19 17:24:00,
2013-07-19 13:29:00,84.7,76.7,30.09,WSW,247,0.9,0.9,77,0.00,,,0.00,WeatherCatV1.20B785,2013-07-19 17:29:00,
2013-07-19 13:34:00,85.3,76.9,30.09,SW,225,1.6,1.6,76,0.00,,,0.00,WeatherCatV1.20B785,2013-07-19 17:34:00,
2013-07-19 13:39:00,86.2,77.3,30.09,NW,315,0.9,0.9,75,0.00,,,0.00,WeatherCatV1.20B785,2013-07-19 17:39:00,
2013-07-19 13:44:00,86.9,77.6,30.09,SSW,202,1.3,1.3,74,0.00,,,0.00,WeatherCatV1.20B785,2013-07-19 17:44:00,
2013-07-19 13:49:00,87.3,77.6,30.09,SW,225,0.0,0.0,73,0.00,,,0.00,WeatherCatV1.20B785,2013-07-19 17:49:00,
2013-07-19 13:54:00,87.4,77.3,30.09,SW,225,0.0,0.0,72,0.00,,,0.00,WeatherCatV1.20B785,2013-07-19 17:54:00,
2013-07-19 13:59:00,87.6,77.5,30.08,SW,225,0.0,0.0,72,0.00,,,0.00,WeatherCatV1.20B785,2013-07-19 17:59:00,
2013-07-19 14:04:00,87.4,77.3,30.08,SSW,202,0.0,0.0,72,0.00,,,0.00,WeatherCatV1.20B785,2013-07-19 18:04:00,
2013-07-19 14:09:00,86.9,76.8,30.08,SSE,157,0.0,0.0,72,0.00,,,0.00,WeatherCatV1.20B785,2013-07-19 18:09:00,
2013-07-19 14:14:00,86.4,76.7,30.08,SSE,157,0.0,0.0,73,0.00,,,0.00,WeatherCatV1.20B785,2013-07-19 18:14:00,
2013-07-19 14:19:00,86.2,76.9,30.08,SSE,157,0.0,0.0,74,0.00,,,0.00,WeatherCatV1.20B785,2013-07-19 18:19:00,
2013-07-19 14:24:00,86.2,76.9,30.08,SW,225,0.0,0.0,74,0.00,,,0.00,WeatherCatV1.20B785,2013-07-19 18:24:00,
2013-07-19 14:29:00,86.4,77.5,30.08,SW,225,0.0,0.0,75,0.00,,,0.00,WeatherCatV1.20B785,2013-07-19 18:29:00,
2013-07-19 14:34:00,87.1,78.2,30.07,SE,135,0.0,1.6,75,0.00,,,0.00,WeatherCatV1.20B785,2013-07-19 18:34:00,
2013-07-19 14:39:00,88.5,78.3,30.07,SE,135,0.0,0.0,72,0.00,,,0.00,WeatherCatV1.20B785,2013-07-19 18:39:00,
2013-07-19 14:44:00,89.2,78.7,30.07,South,180,0.0,0.0,71,0.00,,,0.00,WeatherCatV1.20B785,2013-07-19 18:44:00,
2013-07-19 14:49:00,90.1,78.2,30.07,SSE,157,0.9,0.9,68,0.00,,,0.00,WeatherCatV1.20B785,2013-07-19 18:49:00,
2013-07-19 14:54:00,90.3,77.9,30.07,SSW,202,0.0,0.0,67,0.00,,,0.00,WeatherCatV1.20B785,2013-07-19 18:54:00,
2013-07-19 14:59:00,90.7,77.7,30.07,NNW,337,0.0,0.0,66,0.00,,,0.00,WeatherCatV1.20B785,2013-07-19 18:59:00,
2013-07-19 15:04:00,91.2,77.7,30.07,South,180,0.0,0.0,65,0.00,,,0.00,WeatherCatV1.20B785,2013-07-19 19:04:00,
2013-07-19 15:09:00,91.2,77.7,30.06,SSW,202,0.0,0.0,65,0.00,,,0.00,WeatherCatV1.20B785,2013-07-19 19:09:00,
2013-07-19 15:14:00,91.0,77.6,30.07,SSW,202,0.0,0.0,65,0.00,,,0.00,WeatherCatV1.20B785,2013-07-19 19:14:00,
2013-07-19 15:19:00,90.5,77.1,30.06,SSW,202,0.0,1.8,65,0.00,,,0.00,WeatherCatV1.20B785,2013-07-19 19:19:00,
2013-07-19 15:24:00,90.3,77.4,30.06,North,0,0.0,0.0,66,0.00,,,0.00,WeatherCatV1.20B785,2013-07-19 19:24:00,
2013-07-19 15:29:00,90.3,76.9,30.06,West,270,0.0,0.0,65,0.00,,,0.00,WeatherCatV1.20B785,2013-07-19 19:29:00,
2013-07-19 15:34:00,90.3,76.9,30.06,South,180,0.0,0.0,65,0.00,,,0.00,WeatherCatV1.20B785,2013-07-19 19:34:00,
2013-07-19 15:39:00,89.8,76.9,30.05,South,180,0.0,0.0,66,0.00,,,0.00,WeatherCatV1.20B785,2013-07-19 19:39:00,
2013-07-19 15:44:00,89.2,76.4,30.05,South,180,0.0,0.0,66,0.00,,,0.00,WeatherCatV1.20B785,2013-07-19 19:44:00,
2013-07-19 15:49:00,88.7,76.3,30.05,SSE,157,0.0,0.0,67,0.00,,,0.00,WeatherCatV1.20B785,2013-07-19 19:49:00,
2013-07-19 15:54:00,88.3,76.4,30.05,SSE,157,0.0,0.0,68,0.00,,,0.00,WeatherCatV1.20B785,2013-07-19 19:54:00,
2013-07-19 15:59:00,88.0,76.5,30.05,SSE,157,0.0,0.0,69,0.00,,,0.00,WeatherCatV1.20B785,2013-07-19 19:59:00,
2013-07-19 16:04:00,87.1,76.2,30.05,SSE,157,0.0,0.0,70,0.00,,,0.00,WeatherCatV1.20B785,2013-07-19 20:04:00,
2013-07-19 16:09:00,86.4,75.9,30.05,South,180,0.0,0.0,71,0.00,,,0.00,WeatherCatV1.20B785,2013-07-19 20:09:00,
2013-07-19 16:14:00,85.8,75.8,30.04,SE,135,0.0,0.0,72,0.00,,,0.00,WeatherCatV1.20B785,2013-07-19 20:14:00,
2013-07-19 16:19:00,85.6,76.0,30.04,ESE,112,2.2,2.2,73,0.00,,,0.00,WeatherCatV1.20B785,2013-07-19 20:19:00,
2013-07-19 16:24:00,85.3,75.7,30.04,SSE,157,0.0,0.0,73,0.00,,,0.00,WeatherCatV1.20B785,2013-07-19 20:24:00,
2013-07-19 16:29:00,85.3,75.7,30.04,SSE,157,0.0,0.0,73,0.00,,,0.00,WeatherCatV1.20B785,2013-07-19 20:29:00,
2013-07-19 16:34:00,85.1,75.9,30.04,SSW,202,0.0,0.0,74,0.00,,,0.00,WeatherCatV1.20B785,2013-07-19 20:34:00,
2013-07-19 16:39:00,85.1,75.9,30.05,SSE,157,0.7,0.7,74,0.00,,,0.00,WeatherCatV1.20B785,2013-07-19 20:39:00,
2013-07-19 16:44:00,84.9,75.7,30.05,SE,135,1.1,1.1,74,0.00,,,0.00,WeatherCatV1.20B785,2013-07-19 20:44:00,
2013-07-19 16:49:00,84.0,74.8,30.06,SE,135,0.0,0.0,74,0.00,,,0.00,WeatherCatV1.20B785,2013-07-19 20:49:00,
2013-07-19 16:54:00,83.5,74.7,30.06,SE,135,0.7,0.7,75,0.00,,,0.00,WeatherCatV1.20B785,2013-07-19 20:54:00,
2013-07-19 16:59:00,82.9,74.2,30.06,SSE,157,0.0,0.0,75,0.00,,,0.00,WeatherCatV1.20B785,2013-07-19 20:59:00,
2013-07-19 17:04:00,82.8,74.4,30.06,South,180,0.0,0.0,76,0.00,,,0.00,WeatherCatV1.20B785,2013-07-19 21:04:00,
2013-07-19 17:09:00,82.2,73.9,30.06,South,180,0.0,0.0,76,0.00,,,0.00,WeatherCatV1.20B785,2013-07-19 21:09:00,
2013-07-19 17:14:00,82.0,74.1,30.07,SSE,157,0.0,0.0,77,0.00,,,0.00,WeatherCatV1.20B785,2013-07-19 21:14:00,
2013-07-19 17:19:00,81.7,74.2,30.07,South,180,0.0,0.0,78,0.00,,,0.00,WeatherCatV1.20B785,2013-07-19 21:19:00,
2013-07-19 17:24:00,81.7,74.2,30.08,SSW,202,0.0,0.0,78,0.00,,,0.00,WeatherCatV1.20B785,2013-07-19 21:24:00,
2013-07-19 17:29:00,81.7,74.6,30.07,SSW,202,0.0,0.0,79,0.00,,,0.00,WeatherCatV1.20B785,2013-07-19 21:29:00,
2013-07-19 17:34:00,81.7,74.6,30.08,SSE,157,0.0,0.0,79,0.00,,,0.00,WeatherCatV1.20B785,2013-07-19 21:34:00,
2013-07-19 17:39:00,81.7,74.6,30.08,SSE,157,2.5,2.5,79,0.00,,,0.00,WeatherCatV1.20B785,2013-07-19 21:39:00,
2013-07-19 17:44:00,81.3,74.2,30.08,SSW,202,0.0,0.0,79,0.00,,,0.00,WeatherCatV1.20B785,2013-07-19 21:44:00,
2013-07-19 17:49:00,81.1,73.7,30.09,SE,135,1.6,1.6,78,0.00,,,0.00,WeatherCatV1.20B785,2013-07-19 21:49:00,
2013-07-19 17:54:00,80.6,73.2,30.09,SSE,157,0.0,0.0,78,0.00,,,0.00,WeatherCatV1.20B785,2013-07-19 21:54:00,
2013-07-19 17:59:00,80.2,72.8,30.09,ESE,112,0.0,0.0,78,0.00,,,0.00,WeatherCatV1.20B785,2013-07-19 21:59:00,
2013-07-19 18:04:00,79.7,72.2,30.08,South,180,0.0,0.0,78,0.00,,,0.00,WeatherCatV1.20B785,2013-07-19 22:04:00,
2013-07-19 18:09:00,79.3,71.9,30.08,SSE,157,1.1,1.1,78,0.00,,,0.00,WeatherCatV1.20B785,2013-07-19 22:09:00,
2013-07-19 18:14:00,79.0,71.9,30.08,South,180,0.0,0.0,79,0.00,,,0.00,WeatherCatV1.20B785,2013-07-19 22:14:00,
2013-07-19 18:19:00,78.8,71.7,30.07,SW,225,0.0,0.0,79,0.00,,,0.00,WeatherCatV1.20B785,2013-07-19 22:19:00,
2013-07-19 18:24:00,78.6,71.6,30.07,SSW,202,0.0,0.0,79,0.00,,,0.00,WeatherCatV1.20B785,2013-07-19 22:24:00,
2013-07-19 18:29:00,78.6,71.6,30.07,SSW,202,0.0,0.0,79,0.00,,,0.00,WeatherCatV1.20B785,2013-07-19 22:29:00,
2013-07-19 18:34:00,78.6,71.6,30.07,SSW,202,0.0,0.0,79,0.00,,,0.00,WeatherCatV1.20B785,2013-07-19 22:34:00,
2013-07-19 18:39:00,78.6,71.6,30.06,SSW,202,0.0,0.0,79,0.00,,,0.00,WeatherCatV1.20B785,2013-07-19 22:39:00,
2013-07-19 18:44:00,78.6,71.6,30.06,South,180,0.0,0.0,79,0.00,,,0.00,WeatherCatV1.20B785,2013-07-19 22:44:00,
2013-07-19 18:49:00,78.6,72.0,30.06,South,180,0.0,0.0,80,0.00,,,0.00,WeatherCatV1.20B785,2013-07-19 22:49:00,
2013-07-19 18:54:00,78.6,72.0,30.06,SSW,202,0.0,0.0,80,0.00,,,0.00,WeatherCatV1.20B785,2013-07-19 22:54:00,
2013-07-19 18:59:00,78.6,72.0,30.06,South,180,0.0,0.0,80,0.00,,,0.00,WeatherCatV1.20B785,2013-07-19 22:59:00,
2013-07-19 19:04:00,78.4,71.8,30.06,South,180,0.0,0.0,80,0.00,,,0.00,WeatherCatV1.20B785,2013-07-19 23:04:00,
2013-07-19 19:09:00,78.4,71.8,30.06,South,180,0.0,0.0,80,0.00,,,0.00,WeatherCatV1.20B785,2013-07-19 23:09:00,
2013-07-19 19:14:00,78.4,71.8,30.06,SSW,202,0.0,0.0,80,0.00,,,0.00,WeatherCatV1.20B785,2013-07-19 23:14:00,
2013-07-19 19:19:00,78.4,71.8,30.06,SW,225,0.0,0.0,80,0.00,,,0.00,WeatherCatV1.20B785,2013-07-19 23:19:00,
2013-07-19 19:24:00,78.4,71.8,30.07,SW,225,0.0,0.0,80,0.00,,,0.00,WeatherCatV1.20B785,2013-07-19 23:24:00,
2013-07-19 19:29:00,78.4,71.8,30.07,WSW,247,0.0,0.0,81,0.00,,,0.00,WeatherCatV1.20B785,2013-07-19 23:29:00,
2013-07-19 19:34:00,78.4,72.1,30.07,SW,225,0.0,0.0,81,0.00,,,0.00,WeatherCatV1.20B785,2013-07-19 23:34:00,
2013-07-19 19:39:00,78.4,72.1,30.07,SW,225,0.0,0.0,81,0.00,,,0.00,WeatherCatV1.20B785,2013-07-19 23:39:00,
2013-07-19 19:44:00,78.4,72.1,30.07,SW,225,0.0,0.0,81,0.00,,,0.00,WeatherCatV1.20B785,2013-07-19 23:44:00,
2013-07-19 19:49:00,78.3,72.0,30.07,SW,225,0.0,0.0,81,0.00,,,0.00,WeatherCatV1.20B785,2013-07-19 23:49:00,
2013-07-19 19:54:00,78.3,72.0,30.07,SW,225,0.0,0.0,81,0.00,,,0.00,WeatherCatV1.20B785,2013-07-19 23:54:00,
2013-07-19 19:59:00,78.1,71.8,30.07,SW,225,0.0,0.0,81,0.00,,,0.00,WeatherCatV1.20B785,2013-07-19 23:59:00,
2013-07-19 20:04:00,77.9,71.6,30.07,SW,225,0.0,0.0,81,0.00,,,0.00,WeatherCatV1.20B785,2013-07-20 00:04:00,
2013-07-19 20:09:00,77.9,71.6,30.07,SW,225,0.0,0.0,81,0.00,,,0.00,WeatherCatV1.20B785,2013-07-20 00:09:00,
2013-07-19 20:14:00,77.9,71.6,30.07,SW,225,0.0,0.0,82,0.00,,,0.00,WeatherCatV1.20B785,2013-07-20 00:14:00,
2013-07-19 20:19:00,77.9,72.0,30.07,SW,225,0.0,0.0,82,0.00,,,0.00,WeatherCatV1.20B785,2013-07-20 00:19:00,
2013-07-19 20:24:00,77.7,71.8,30.07,SW,225,0.0,0.0,82,0.00,,,0.00,WeatherCatV1.20B785,2013-07-20 00:24:00,
2013-07-19 20:29:00,77.7,71.8,30.08,SW,225,0.0,0.0,82,0.00,,,0.00,WeatherCatV1.20B785,2013-07-20 00:29:00,
2013-07-19 20:34:00,77.5,71.6,30.08,SW,225,0.0,0.0,82,0.00,,,0.00,WeatherCatV1.20B785,2013-07-20 00:34:00,
2013-07-19 20:39:00,77.5,71.6,30.08,SW,225,0.0,0.0,82,0.00,,,0.00,WeatherCatV1.20B785,2013-07-20 00:39:00,
2013-07-19 20:44:00,77.5,71.6,30.08,SW,225,0.0,0.0,82,0.00,,,0.00,WeatherCatV1.20B785,2013-07-20 00:44:00,
2013-07-19 20:49:00,77.5,72.0,30.08,SW,225,0.0,0.0,83,0.00,,,0.00,WeatherCatV1.20B785,2013-07-20 00:49:00,
2013-07-19 20:54:00,77.4,71.8,30.08,SW,225,0.0,0.0,83,0.00,,,0.00,WeatherCatV1.20B785,2013-07-20 00:54:00,
2013-07-19 20:59:00,77.4,71.8,30.08,SW,225,0.0,0.0,83,0.00,,,0.00,WeatherCatV1.20B785,2013-07-20 00:59:00,
2013-07-19 21:04:00,77.2,71.6,30.08,SW,225,0.0,0.0,83,0.00,,,0.00,WeatherCatV1.20B785,2013-07-20 01:04:00,
2013-07-19 21:09:00,77.2,71.6,30.09,SW,225,0.0,0.0,83,0.00,,,0.00,WeatherCatV1.20B785,2013-07-20 01:09:00,
2013-07-19 21:14:00,77.2,71.6,30.09,SSW,202,0.0,0.0,83,0.00,,,0.00,WeatherCatV1.20B785,2013-07-20 01:14:00,
2013-07-19 21:19:00,77.2,71.6,30.09,SSW,202,0.0,0.0,83,0.00,,,0.00,WeatherCatV1.20B785,2013-07-20 01:19:00,
2013-07-19 21:24:00,77.0,71.4,30.09,SSW,202,0.0,0.0,83,0.00,,,0.00,WeatherCatV1.20B785,2013-07-20 01:24:00,
2013-07-19 21:29:00,76.8,71.6,30.10,SSW,202,0.0,0.0,84,0.00,,,0.00,WeatherCatV1.20B785,2013-07-20 01:29:00,
2013-07-19 21:34:00,76.8,71.6,30.10,SSW,202,0.0,0.0,84,0.00,,,0.00,WeatherCatV1.20B785,2013-07-20 01:34:00,
2013-07-19 21:39:00,76.8,71.6,30.10,SW,225,0.0,0.0,84,0.00,,,0.00,WeatherCatV1.20B785,2013-07-20 01:39:00,
2013-07-19 21:44:00,76.8,71.6,30.10,SW,225,0.0,0.0,84,0.00,,,0.00,WeatherCatV1.20B785,2013-07-20 01:44:00,
2013-07-19 21:49:00,76.8,71.6,30.10,SW,225,0.0,0.0,84,0.00,,,0.00,WeatherCatV1.20B785,2013-07-20 01:49:00,
2013-07-19 21:54:00,76.8,71.6,30.10,SW,225,0.0,0.0,84,0.00,,,0.00,WeatherCatV1.20B785,2013-07-20 01:54:00,
2013-07-19 21:59:00,76.6,71.4,30.10,SW,225,0.0,0.0,84,0.00,,,0.00,WeatherCatV1.20B785,2013-07-20 01:59:00,
2013-07-19 22:04:00,76.6,71.4,30.10,SW,225,0.0,0.0,84,0.00,,,0.00,WeatherCatV1.20B785,2013-07-20 02:04:00,
2013-07-19 22:09:00,76.6,71.4,30.10,SSW,202,0.0,0.0,84,0.00,,,0.00,WeatherCatV1.20B785,2013-07-20 02:09:00,
2013-07-19 22:14:00,76.6,71.4,30.11,SSW,202,0.0,0.0,84,0.00,,,0.00,WeatherCatV1.20B785,2013-07-20 02:14:00,
2013-07-19 22:19:00,76.6,71.4,30.10,SW,225,0.0,0.0,84,0.00,,,0.00,WeatherCatV1.20B785,2013-07-20 02:19:00,
2013-07-19 22:24:00,76.5,71.3,30.10,SSW,202,0.0,0.0,84,0.00,,,0.00,WeatherCatV1.20B785,2013-07-20 02:24:00,
2013-07-19 22:29:00,76.3,71.1,30.09,SW,225,0.0,0.0,84,0.00,,,0.00,WeatherCatV1.20B785,2013-07-20 02:29:00,
2013-07-19 22:34:00,76.3,71.1,30.10,SW,225,0.0,0.0,84,0.00,,,0.00,WeatherCatV1.20B785,2013-07-20 02:34:00,
2013-07-19 22:39:00,76.3,71.1,30.10,SW,225,0.0,0.0,84,0.00,,,0.00,WeatherCatV1.20B785,2013-07-20 02:39:00,
2013-07-19 22:44:00,76.1,70.9,30.10,SW,225,0.0,0.0,84,0.00,,,0.00,WeatherCatV1.20B785,2013-07-20 02:44:00,
2013-07-19 22:49:00,76.1,70.9,30.10,SW,225,0.0,0.0,84,0.00,,,0.00,WeatherCatV1.20B785,2013-07-20 02:49:00,
2013-07-19 22:54:00,76.1,70.9,30.11,SW,225,0.0,0.0,84,0.00,,,0.00,WeatherCatV1.20B785,2013-07-20 02:54:00,
2013-07-19 22:59:00,75.9,70.8,30.10,SW,225,0.0,0.0,84,0.00,,,0.00,WeatherCatV1.20B785,2013-07-20 02:59:00,
2013-07-19 23:04:00,75.9,70.8,30.10,SW,225,0.0,0.0,84,0.00,,,0.00,WeatherCatV1.20B785,2013-07-20 03:04:00,
2013-07-19 23:09:00,75.9,70.8,30.11,SW,225,0.0,0.0,84,0.00,,,0.00,WeatherCatV1.20B785,2013-07-20 03:09:00,
2013-07-19 23:14:00,75.9,70.8,30.10,SW,225,0.0,0.0,84,0.00,,,0.00,WeatherCatV1.20B785,2013-07-20 03:14:00,
2013-07-19 23:19:00,75.7,70.6,30.10,SW,225,0.0,0.0,84,0.00,,,0.00,WeatherCatV1.20B785,2013-07-20 03:19:00,
2013-07-19 23:24:00,75.7,70.6,30.10,SW,225,0.0,0.0,84,0.00,,,0.00,WeatherCatV1.20B785,2013-07-20 03:24:00,
2013-07-19 23:29:00,75.7,70.6,30.09,SW,225,0.0,0.0,84,0.00,,,0.00,WeatherCatV1.20B785,2013-07-20 03:29:00,
2013-07-19 23:34:00,75.6,70.4,30.10,SW,225,0.0,0.0,84,0.00,,,0.00,WeatherCatV1.20B785,2013-07-20 03:34:00,
2013-07-19 23:39:00,75.6,70.4,30.10,SW,225,0.0,0.0,84,0.00,,,0.00,WeatherCatV1.20B785,2013-07-20 03:39:00,
2013-07-19 23:44:00,75.6,70.4,30.10,SW,225,0.0,0.0,84,0.00,,,0.00,WeatherCatV1.20B785,2013-07-20 03:44:00,
2013-07-19 23:49:00,75.6,70.4,30.10,SW,225,0.0,0.0,84,0.00,,,0.00,WeatherCatV1.20B785,2013-07-20 03:49:00,
2013-07-19 23:54:00,75.4,70.2,30.10,SW,225,0.0,0.0,84,0.00,,,0.00,WeatherCatV1.20B785,2013-07-20 03:54:00,
2013-07-19 23:59:00,75.4,70.2,30.09,SW,225,0.0,0.0,84,0.00,,,0.00,WeatherCatV1.20B785,2013-07-20 03:59:00,